Dunkirk, NY

12:09 PM EDT on July 26, 2017 (GMT -0400)
Chautauqua County-Dunkirk

Weather History for KDKK - July, 2013

Change the Weather History Date:

Monday, July 1, 2013

  Actual Average Record
Temperature  
Mean Temperature 66 °F -  
Max Temperature 69 °F 78 °F 94 °F (1931)
Min Temperature 63 °F 59 °F 46 °F (1936)
Cooling Degree Days 1    
Growing Degree Days 16 (Base 50)    
Moisture  
Dew Point 62 °F    
Average Humidity 87    
Maximum Humidity 94    
Minimum Humidity 78    
Precipitation  
Precipitation 0.09 in - - ()
Sea Level Pressure  
Sea Level Pressure 29.97 in    
Wind  
Wind Speed 8 mph (NE)    
Max Wind Speed 14 mph    
Max Gust Speed 20 mph    
Visibility 8 miles    
Events Rain    
Averages and records for this station are not official NWS values.
T = Trace of Precipitation, MM = Missing Value Source: NWS Daily Summary

Daily Weather History Graph

Daily Weather History Graph

Search for Another Location

Airport or City:

Trip Planner

Search our weather history database for the weather conditions in past years. The results will help you decide how hot, cold, wet, or windy it might be!

Date:

Astronomy

Jul. 01, 2013 Rise Set
Actual Time 5:43 AM EDT 8:58 PM EDT
Civil Twilight 5:09 AM EDT 9:32 PM EDT
Nautical Twilight 4:24 AM EDT 10:17 PM EDT
Astronomical Twilight 3:29 AM EDT 11:11 PM EDT
Moon 1:17 AM EDT (7/1) 3:07 PM EDT (7/1)
Length of Visible Light 16h 23m
Length of Day
15h 14m
Waning Crescent, 35% of the Moon is Illuminated
Jul 1
Waning Crescent
Jul 8
New
Jul 15
First Quarter
Jul 22
Full
Jul 29
Last Quarter

Hourly Weather History & Observations

Time (EDT) Temp. Dew Point Humidity Pressure Visibility Wind Dir Wind Speed Gust Speed Precip Events Conditions
12:32 AM 68.0 °F 62.6 °F 83% 29.92 in 10.0 mi ENE 8.1 mph - N/A   Overcast
12:53 AM 68.0 °F 62.1 °F 81% 29.91 in 10.0 mi Variable 6.9 mph - N/A   Overcast
1:53 AM 68.0 °F 62.1 °F 81% 29.91 in 10.0 mi NE 6.9 mph - N/A   Overcast
2:30 AM 66.2 °F 62.6 °F 88% 29.92 in 10.0 mi Variable 5.8 mph - N/A   Overcast
2:53 AM 66.0 °F 62.1 °F 87% 29.90 in 10.0 mi NE 5.8 mph - N/A   Scattered Clouds
3:53 AM 64.9 °F 62.1 °F 90% 29.90 in 10.0 mi Variable 4.6 mph - N/A   Mostly Cloudy
4:53 AM 64.9 °F 61.0 °F 87% 29.91 in 10.0 mi Variable 5.8 mph - N/A   Clear
5:53 AM 64.0 °F 61.0 °F 90% 29.93 in 10.0 mi Variable 6.9 mph - N/A   Scattered Clouds
6:53 AM 64.9 °F 61.0 °F 87% 29.94 in 10.0 mi NE 4.6 mph - N/A   Scattered Clouds
7:53 AM 66.0 °F 61.0 °F 84% 29.95 in 10.0 mi NE 6.9 mph - N/A   Mostly Cloudy
8:53 AM 66.0 °F 61.0 °F 84% 29.96 in 10.0 mi ENE 5.8 mph - N/A   Mostly Cloudy
9:53 AM 68.0 °F 62.1 °F 81% 29.95 in 10.0 mi NE 6.9 mph - N/A   Mostly Cloudy
10:53 AM 69.1 °F 62.1 °F 78% 29.96 in 8.0 mi NNE 10.4 mph - N/A   Mostly Cloudy
11:53 AM 69.1 °F 62.1 °F 78% 29.97 in 7.0 mi NNE 9.2 mph - N/A   Overcast
12:53 PM 68.0 °F 63.0 °F 84% 29.98 in 6.0 mi NNE 8.1 mph - 0.03 in Rain Light Rain
1:53 PM 64.9 °F 63.0 °F 93% 29.99 in 3.0 mi NNE 9.2 mph - 0.03 in Rain Light Rain
2:11 PM 66.2 °F 62.6 °F 88% 30.00 in 6.0 mi NE 10.4 mph - 0.00 in Rain Light Rain
2:53 PM 64.9 °F 63.0 °F 93% 29.99 in 6.0 mi NE 11.5 mph - 0.01 in Rain Light Rain
3:53 PM 64.9 °F 63.0 °F 93% 30.00 in 6.0 mi NE 13.8 mph 19.6 mph 0.02 in Rain Light Rain
4:53 PM 64.9 °F 62.1 °F 90% 30.00 in 5.0 mi NNE 10.4 mph 16.1 mph 0.00 in   Overcast
5:26 PM 64.4 °F 62.6 °F 94% 30.00 in 6.0 mi NE 11.5 mph 17.3 mph N/A   Overcast
5:53 PM 64.9 °F 62.1 °F 90% 30.01 in 6.0 mi NE 10.4 mph - N/A   Overcast
6:53 PM 64.9 °F 61.0 °F 87% 30.01 in 7.0 mi ENE 10.4 mph - N/A   Overcast
7:53 PM 64.9 °F 61.0 °F 87% 30.02 in 7.0 mi NE 10.4 mph - N/A   Overcast
8:53 PM 64.9 °F 61.0 °F 87% 30.04 in 9.0 mi NNE 8.1 mph 16.1 mph N/A   Overcast
9:53 PM 64.0 °F 61.0 °F 90% 30.04 in 8.0 mi NE 11.5 mph - 0.00 in   Overcast
10:53 PM 63.0 °F 60.1 °F 90% 30.04 in 10.0 mi NE 8.1 mph - N/A   Overcast
11:53 PM 63.0 °F 60.1 °F 90% 30.04 in 10.0 mi NNE 10.4 mph - N/A   Overcast